When you browse on this site, cookies collect data to enhance your experience and personalize the content and advertising you see.
Visit our Privacy Policy to learn more. By continuing to use the site, you agree to this use of cookies and data.
  • In Hungary
  • List of Countries
  • For 7 days
  • Water Temperature
  • Satellite Maps
  • Weather Map
  • News
  • Weather Widgets
  • user-avatar
    Login

    Hourly Weather Agdam

    Today, 21 March, Thursday

    Time Temperature Precipitation Wind Pressure Humidity
    00:00 +7°C° 0.3 mm 1 mps 725 mmHg 92%
    01:00 +7°C° 0.2 mm 1 mps 725 mmHg 93%
    02:00 +7°C° 0.2 mm 1 mps 725 mmHg 94%
    03:00 +5°C° 0 mm 0 mps 725 mmHg 95%
    04:00 +5°C° 0.2 mm 0 mps 725 mmHg 95%
    05:00 +5°C° 0.2 mm 0 mps 725 mmHg 96%
    06:00 +5°C° 0.2 mm 0 mps 725 mmHg 96%
    07:00 +7°C° 0.1 mm 1 mps 725 mmHg 90%
    08:00 +8°C° 0.1 mm 1 mps 726 mmHg 83%
    09:00 +9°C° 0.1 mm 1 mps 726 mmHg 77%
    10:00 +9°C° 0 mm 2 mps 726 mmHg 73%
    11:00 +10°C° 0 mm 2 mps 726 mmHg 69%
    12:00 +12°C° 0 mm 2 mps 725 mmHg 66%
    13:00 +13°C° 0 mm 2 mps 725 mmHg 64%
    14:00 +13°C° 0 mm 2 mps 725 mmHg 62%
    15:00 +14°C° 0 mm 2 mps 724 mmHg 60%
    16:00 +13°C° 0 mm 2 mps 724 mmHg 64%
    17:00 +12°C° 0 mm 2 mps 724 mmHg 68%
    18:00 +10°C° 0 mm 2 mps 724 mmHg 73%
    19:00 +10°C° 0 mm 2 mps 725 mmHg 76%
    20:00 +10°C° 0 mm 1 mps 725 mmHg 80%
    21:00 +9°C° 0 mm 1 mps 725 mmHg 84%
    22:00 +9°C° 0 mm 1 mps 725 mmHg 85%
    23:00 +9°C° 0 mm 1 mps 725 mmHg 86%

    Tomorrow, 22 March, Friday

    Time Temperature Precipitation Wind Pressure Humidity
    00:00 +7°C° 0 mm 0 mps 725 mmHg 87%
    01:00 +7°C° 0 mm 0 mps 725 mmHg 88%
    02:00 +8°C° 0 mm 1 mps 725 mmHg 89%
    03:00 +7°C° 0 mm 1 mps 725 mmHg 90%
    04:00 +7°C° 0 mm 1 mps 725 mmHg 90%
    05:00 +7°C° 0 mm 1 mps 725 mmHg 90%
    06:00 +6°C° 0 mm 0 mps 725 mmHg 89%
    07:00 +8°C° 0 mm 1 mps 726 mmHg 84%
    08:00 +9°C° 0 mm 1 mps 726 mmHg 78%
    09:00 +10°C° 0 mm 2 mps 726 mmHg 72%
    10:00 +12°C° 0 mm 2 mps 725 mmHg 68%
    11:00 +12°C° 0 mm 2 mps 725 mmHg 64%
    12:00 +12°C° 0 mm 3 mps 725 mmHg 60%
    13:00 +13°C° 0.1 mm 2 mps 724 mmHg 58%
    14:00 +13°C° 0.1 mm 2 mps 723 mmHg 56%
    15:00 +14°C° 0.1 mm 2 mps 723 mmHg 54%
    16:00 +13°C° 0.1 mm 2 mps 723 mmHg 56%
    17:00 +13°C° 0.1 mm 1 mps 723 mmHg 58%
    18:00 +12°C° 0.1 mm 1 mps 723 mmHg 59%
    19:00 +12°C° 0.1 mm 1 mps 724 mmHg 60%
    20:00 +12°C° 0.1 mm 1 mps 724 mmHg 60%
    21:00 +10°C° 0.1 mm 2 mps 725 mmHg 61%
    22:00 +9°C° 0 mm 2 mps 725 mmHg 58%
    23:00 +9°C° 0 mm 2 mps 725 mmHg 55%

    Day after tomorrow, 23 March, Saturday

    Time Temperature Precipitation Wind Pressure Humidity
    00:00 +8°C° 0 mm 2 mps 725 mmHg 52%
    01:00 +7°C° 0 mm 2 mps 725 mmHg 53%
    02:00 +7°C° 0 mm 2 mps 725 mmHg 55%
    03:00 +8°C° 0 mm 1 mps 725 mmHg 56%
    04:00 +7°C° 0 mm 1 mps 725 mmHg 57%
    05:00 +7°C° 0 mm 1 mps 725 mmHg 59%
    06:00 +6°C° 0 mm 1 mps 724 mmHg 60%
    07:00 +8°C° 0 mm 1 mps 724 mmHg 57%
    08:00 +8°C° 0 mm 2 mps 724 mmHg 54%
    09:00 +9°C° 0 mm 2 mps 724 mmHg 51%
    10:00 +10°C° 0 mm 2 mps 723 mmHg 49%
    11:00 +11°C° 0 mm 3 mps 723 mmHg 48%
    12:00 +12°C° 0 mm 3 mps 722 mmHg 47%
    13:00 +12°C° 0 mm 3 mps 721 mmHg 46%
    14:00 +12°C° 0 mm 3 mps 720 mmHg 46%
    15:00 +13°C° 0 mm 3 mps 720 mmHg 46%
    16:00 +13°C° 0 mm 2 mps 720 mmHg 49%
    17:00 +12°C° 0 mm 2 mps 720 mmHg 52%
    18:00 +11°C° 0 mm 1 mps 720 mmHg 55%
    19:00 +10°C° 0 mm 1 mps 720 mmHg 57%
    20:00 +10°C° 0 mm 1 mps 720 mmHg 58%
    21:00 +9°C° 0 mm 1 mps 721 mmHg 59%
    22:00 +9°C° 0 mm 1 mps 721 mmHg 58%
    23:00 +9°C° 0 mm 1 mps 720 mmHg 57%

    24 March, Sunday

    Time Temperature Precipitation Wind Pressure Humidity
    00:00 +7°C° 0 mm 2 mps 720 mmHg 56%
    01:00 +8°C° 0 mm 1 mps 720 mmHg 55%
    02:00 +8°C° 0 mm 1 mps 719 mmHg 54%
    03:00 +8°C° 0 mm 1 mps 719 mmHg 53%
    04:00 +7°C° 0 mm 1 mps 719 mmHg 53%
    05:00 +7°C° 0 mm 1 mps 719 mmHg 53%
    06:00 +7°C° 0 mm 1 mps 719 mmHg 53%
    07:00 +9°C° 0 mm 1 mps 719 mmHg 50%
    08:00 +9°C° 0 mm 2 mps 719 mmHg 46%
    09:00 +12°C° 0 mm 2 mps 719 mmHg 43%
    10:00 +12°C° 0 mm 2 mps 718 mmHg 42%
    11:00 +12°C° 0 mm 3 mps 718 mmHg 42%
    12:00 +13°C° 0 mm 3 mps 717 mmHg 42%
    13:00 +13°C° 0 mm 3 mps 717 mmHg 42%
    14:00 +13°C° 0 mm 3 mps 716 mmHg 42%
    15:00 +13°C° 0 mm 3 mps 716 mmHg 42%
    16:00 +12°C° 0.2 mm 3 mps 716 mmHg 48%
    17:00 +12°C° 0.2 mm 2 mps 717 mmHg 54%
    18:00 +12°C° 0.2 mm 2 mps 717 mmHg 59%
    19:00 +10°C° 0.7 mm 2 mps 718 mmHg 65%
    20:00 +9°C° 0.7 mm 3 mps 718 mmHg 71%
    21:00 +8°C° 0.7 mm 3 mps 719 mmHg 77%
    22:00 +7°C° 0.5 mm 3 mps 719 mmHg 77%
    23:00 +7°C° 0.5 mm 3 mps 719 mmHg 77%

    25 March, Monday

    Time Temperature Precipitation Wind Pressure Humidity
    00:00 +5°C° 0.5 mm 3 mps 719 mmHg 76%
    01:00 +5°C° 0.2 mm 3 mps 719 mmHg 75%
    02:00 +5°C° 0.2 mm 3 mps 719 mmHg 75%
    03:00 +5°C° 0.2 mm 3 mps 719 mmHg 74%
    04:00 +6°C° 0.2 mm 2 mps 720 mmHg 74%
    05:00 +5°C° 0.2 mm 2 mps 720 mmHg 74%
    06:00 +5°C° 0.2 mm 2 mps 720 mmHg 75%
    07:00 +5°C° 0.3 mm 2 mps 721 mmHg 74%
    08:00 +5°C° 0.3 mm 2 mps 721 mmHg 74%
    09:00 +5°C° 0.3 mm 2 mps 721 mmHg 74%
    10:00 +6°C° 0.1 mm 2 mps 722 mmHg 72%
    11:00 +6°C° 0.1 mm 2 mps 722 mmHg 71%
    12:00 +7°C° 0.1 mm 2 mps 722 mmHg 69%
    13:00 +7°C° 0.1 mm 2 mps 722 mmHg 69%
    14:00 +7°C° 0.1 mm 2 mps 722 mmHg 69%
    15:00 +7°C° 0.1 mm 2 mps 721 mmHg 69%
    16:00 +7°C° 0.1 mm 2 mps 722 mmHg 72%
    17:00 +7°C° 0.1 mm 2 mps 722 mmHg 75%
    18:00 +5°C° 0.1 mm 3 mps 722 mmHg 77%
    19:00 +5°C° 0.1 mm 3 mps 723 mmHg 78%
    20:00 +5°C° 0.1 mm 3 mps 723 mmHg 79%
    21:00 +4°C° 0.1 mm 3 mps 723 mmHg 80%
    22:00 +4°C° 0 mm 3 mps 723 mmHg 78%
    23:00 +4°C° 0 mm 3 mps 723 mmHg 76%

    26 March, Tuesday

    Time Temperature Precipitation Wind Pressure Humidity
    00:00 +3°C° 0 mm 3 mps 722 mmHg 74%
    01:00 +5°C° 0.1 mm 2 mps 722 mmHg 74%
    02:00 +5°C° 0.1 mm 2 mps 722 mmHg 73%
    03:00 +5°C° 0.1 mm 2 mps 722 mmHg 73%
    04:00 +4°C° 0.2 mm 2 mps 723 mmHg 74%
    05:00 +4°C° 0.2 mm 2 mps 723 mmHg 74%
    06:00 +4°C° 0.2 mm 2 mps 723 mmHg 75%
    07:00 +5°C° 0.1 mm 2 mps 723 mmHg 70%
    08:00 +5°C° 0.1 mm 3 mps 723 mmHg 66%
    09:00 +7°C° 0.1 mm 3 mps 724 mmHg 61%
    10:00 +7°C° 0 mm 3 mps 723 mmHg 59%
    11:00 +8°C° 0 mm 3 mps 723 mmHg 57%
    12:00 +9°C° 0 mm 3 mps 722 mmHg 55%
    13:00 +9°C° 0 mm 3 mps 722 mmHg 55%
    14:00 +9°C° 0 mm 3 mps 722 mmHg 56%
    15:00 +10°C° 0 mm 3 mps 721 mmHg 56%
    16:00 +9°C° 0 mm 2 mps 721 mmHg 60%
    17:00 +8°C° 0 mm 2 mps 721 mmHg 63%
    18:00 +9°C° 0 mm 1 mps 721 mmHg 67%
    19:00 +8°C° 0 mm 1 mps 722 mmHg 69%
    20:00 +8°C° 0 mm 1 mps 722 mmHg 70%
    21:00 +7°C° 0 mm 1 mps 723 mmHg 72%
    22:00 +7°C° 0 mm 1 mps 723 mmHg 72%
    23:00 +7°C° 0 mm 1 mps 723 mmHg 73%
    Show more